TimePST,TemperatureF,Dew PointF,Humidity,Sea Level PressureIn,VisibilityMPH,Wind Direction,Wind SpeedMPH,Gust SpeedMPH,PrecipitationIn,Events,Conditions,WindDirDegrees,DateUTC
12:53 AM,25.0,24.1,96,30.03,7.0,Calm,Calm,-,N/A,,Partly Cloudy,0,2013-11-04 08:53:00
1:53 AM,24.1,21.0,88,30.03,10.0,Calm,Calm,-,N/A,,Clear,0,2013-11-04 09:53:00
2:10 AM,23.0,21.2,93,29.97,10.0,Calm,Calm,-,N/A,,Partly Cloudy,0,2013-11-04 10:10:00
2:33 AM,23.0,19.4,86,29.97,10.0,NE,3.5,-,N/A,,Mostly Cloudy,40,2013-11-04 10:33:00
2:53 AM,27.0,26.1,96,30.03,10.0,Calm,Calm,-,N/A,,Overcast,0,2013-11-04 10:53:00
3:06 AM,26.6,26.6,100,29.98,10.0,Calm,Calm,-,N/A,,Overcast,0,2013-11-04 11:06:00
3:42 AM,28.4,26.6,93,29.98,10.0,Calm,Calm,-,N/A,,Overcast,0,2013-11-04 11:42:00
3:53 AM,28.9,28.0,96,30.04,10.0,Calm,Calm,-,N/A,,Overcast,0,2013-11-04 11:53:00
4:18 AM,30.2,28.4,93,29.99,10.0,Calm,Calm,-,N/A,,Overcast,0,2013-11-04 12:18:00
4:53 AM,28.9,27.0,92,30.06,10.0,Calm,Calm,-,N/A,,Overcast,0,2013-11-04 12:53:00
5:27 AM,28.4,26.6,93,30.00,10.0,Calm,Calm,-,N/A,,Overcast,0,2013-11-04 13:27:00
5:53 AM,28.0,27.0,96,30.07,9.0,Calm,Calm,-,N/A,,Overcast,0,2013-11-04 13:53:00
6:08 AM,28.4,26.6,93,30.02,9.0,Calm,Calm,-,N/A,,Overcast,0,2013-11-04 14:08:00
6:32 AM,28.4,26.6,93,30.02,9.0,Calm,Calm,-,N/A,,Overcast,0,2013-11-04 14:32:00
6:53 AM,28.0,27.0,96,30.09,6.0,Calm,Calm,-,N/A,,Overcast,0,2013-11-04 14:53:00
7:07 AM,28.4,26.6,93,30.03,6.0,Calm,Calm,-,N/A,,Overcast,0,2013-11-04 15:07:00
7:53 AM,30.0,28.0,92,30.12,10.0,Calm,Calm,-,N/A,,Overcast,0,2013-11-04 15:53:00
8:53 AM,30.0,28.0,92,30.13,9.0,Calm,Calm,-,N/A,,Overcast,0,2013-11-04 16:53:00
9:53 AM,30.9,28.0,89,30.14,10.0,Calm,Calm,-,N/A,,Overcast,0,2013-11-04 17:53:00
10:18 AM,32.0,28.4,87,30.08,10.0,SSE,3.5,-,N/A,,Overcast,160,2013-11-04 18:18:00
10:53 AM,33.1,27.0,78,30.15,10.0,SE,4.6,-,N/A,,Overcast,140,2013-11-04 18:53:00
11:20 AM,33.8,28.4,81,30.09,10.0,SSE,4.6,-,N/A,,Overcast,160,2013-11-04 19:20:00
11:53 AM,35.1,28.0,76,30.16,10.0,South,4.6,-,N/A,,Mostly Cloudy,170,2013-11-04 19:53:00
12:53 PM,35.1,27.0,72,30.16,10.0,Calm,Calm,-,N/A,,Overcast,0,2013-11-04 20:53:00
1:53 PM,35.1,28.0,76,30.17,10.0,SE,3.5,-,N/A,,Overcast,130,2013-11-04 21:53:00
2:53 PM,35.1,28.0,76,30.17,10.0,SSE,5.8,-,N/A,,Overcast,160,2013-11-04 22:53:00
3:53 PM,35.1,28.0,76,30.18,10.0,SSE,3.5,-,N/A,,Overcast,160,2013-11-04 23:53:00
4:53 PM,34.0,28.0,79,30.18,10.0,Calm,Calm,-,N/A,,Overcast,0,2013-11-05 00:53:00
5:53 PM,30.9,27.0,85,30.21,10.0,Calm,Calm,-,N/A,,Overcast,0,2013-11-05 01:53:00
6:53 PM,28.9,26.1,89,30.21,9.0,Calm,Calm,-,N/A,,Overcast,0,2013-11-05 02:53:00
7:53 PM,28.9,26.1,89,30.21,10.0,Calm,Calm,-,N/A,,Overcast,0,2013-11-05 03:53:00
8:53 PM,28.9,27.0,92,30.21,10.0,Calm,Calm,-,N/A,,Overcast,0,2013-11-05 04:53:00
9:53 PM,28.9,27.0,92,30.22,10.0,Calm,Calm,-,N/A,,Overcast,0,2013-11-05 05:53:00
10:53 PM,27.0,25.0,92,30.22,10.0,Calm,Calm,-,N/A,,Overcast,0,2013-11-05 06:53:00
11:53 PM,25.0,23.0,92,30.23,8.0,Calm,Calm,-,N/A,,Clear,0,2013-11-05 07:53:00